 day,  time,  air_temp(C),  RH(%),  ground_temp10cm(C),  ground_temp20cm(C),  ground_temp40cm(C),  precipitation(mm/h),  Solar_Radiation(MJ/m2h),  lack, 
 08/06/01, 01:00,   6.7,  99,  12.7,  13.8,  13.5,   0.0,  0.00, 
 08/06/01, 02:00,   6.4,  99,  12.5,  13.7,  13.5,   0.0,  0.00, 
 08/06/01, 03:00,   6.3,  99,  12.2,  13.6,  13.4,   0.0,  0.00, 
 08/06/01, 04:00,   4.3,  99,  12.0,  13.5,  13.4,   0.0,  0.00, 
 08/06/01, 05:00,   4.9,  99,  11.7,  13.4,  13.5,   0.0,  0.00, 
 08/06/01, 06:00,   4.0,  99,  11.4,  13.3,  13.5,   0.0,  0.17, 
 08/06/01, 07:00,  10.1,  58,  11.2,  13.2,  13.5,   0.0,  1.07, 
 08/06/01, 08:00,   9.0,  91,  11.2,  13.1,  13.5,   0.0,  1.87, 
 08/06/01, 09:00,  11.8,  76,  11.6,  12.8,  13.5,   0.0,  2.59, 
 08/06/01, 10:00,  13.5,  73,  12.4,  12.8,  13.4,   0.0,  3.17, 
 08/06/01, 11:00,  15.0,  63,  13.6,  12.7,  13.4,   0.0,  3.55, 
 08/06/01, 12:00,  16.5,  61,  15.1,  12.8,  13.4,   0.0,  3.71, 
 08/06/01, 13:00,  16.8,  49,  16.6,  13.1,  13.4,   0.0,  3.69, 
 08/06/01, 14:00,  17.3,  46,  17.2,  13.3,  13.3,   0.0,  3.14, 
 08/06/01, 15:00,  17.6,  41,  17.1,  13.7,  13.3,   0.0,  2.88, 
 08/06/01, 16:00,  16.5,  44,  17.1,  13.9,  13.3,   0.0,  2.50, 
 08/06/01, 17:00,  15.1,  45,  17.3,  14.2,  13.3,   0.0,  1.37, 
 08/06/01, 18:00,  14.5,  56,  17.2,  14.4,  13.3,   0.0,  0.83, 
 08/06/01, 19:00,  13.3,  63,  16.9,  14.6,  13.3,   0.0,  0.30, 
 08/06/01, 20:00,  12.5,  65,  16.5,  14.7,  13.3,   0.0,  0.00, 
 08/06/01, 21:00,   9.6,  85,  16.0,  14.8,  13.3,   0.0,  0.00, 
 08/06/01, 22:00,  10.2,  78,  15.5,  14.8,  13.3,   0.0,  0.00, 
 08/06/01, 23:00,   9.1,  87,  15.1,  14.8,  13.3,   0.0,  0.00, 
 08/06/02, 00:00,   9.1,  87,  14.8,  14.8,  13.3,   0.0,  0.00, 
 08/06/02, 01:00,   9.4,  91,  14.5,  14.7,  13.3,   0.0,  0.00, 
 08/06/02, 02:00,  10.8,  69,  14.2,  14.6,  13.3,   0.0,  0.00, 
 08/06/02, 03:00,   9.1,  86,  14.0,  14.5,  13.4,   0.0,  0.00, 
 08/06/02, 04:00,   9.4,  85,  13.8,  14.4,  13.4,   0.0,  0.00, 
 08/06/02, 05:00,   9.1,  86,  13.6,  14.3,  13.4,   0.0,  0.00, 
 08/06/02, 06:00,  10.6,  67,  13.5,  14.2,  13.4,   0.0,  0.09, 
 08/06/02, 07:00,  11.1,  70,  13.3,  14.2,  13.4,   0.0,  0.40, 
 08/06/02, 08:00,  13.5,  71,  13.3,  14.1,  13.4,   0.0,  1.09, 
 08/06/02, 09:00,  13.5,  80,  13.5,  14.0,  13.4,   0.0,  1.20, 
 08/06/02, 10:00,  13.7,  85,  13.8,  13.9,  13.4,   0.0,  0.78, 
 08/06/02, 11:00,  15.4,  72,  14.0,  13.9,  13.4,   0.0,  1.27, 
 08/06/02, 12:00,  13.6,  88,  14.3,  13.9,  13.4,   0.0,  0.96, 
 08/06/02, 13:00,  14.9,  74,  14.5,  13.9,  13.4,   0.0,  1.04, 
 08/06/02, 14:00,  14.6,  76,  14.8,  13.9,  13.4,   0.0,  1.32, 
 08/06/02, 15:00,  14.0,  75,  15.0,  14.0,  13.4,   0.0,  1.25, 
 08/06/02, 16:00,  12.6,  85,  15.2,  14.0,  13.3,   0.0,  0.58, 
 08/06/02, 17:00,  11.4,  91,  15.2,  14.1,  13.4,   0.0,  0.31, 
 08/06/02, 18:00,  10.9,  93,  15.1,  14.2,  13.3,   0.0,  0.09, 
 08/06/02, 19:00,  10.0,  99,  14.9,  14.2,  13.3,   0.0,  0.02, 
 08/06/02, 20:00,   9.4,  99,  14.7,  14.2,  13.3,   0.0,  0.00, 
 08/06/02, 21:00,   9.6,  99,  14.5,  14.3,  13.3,   0.0,  0.00, 
 08/06/02, 22:00,   9.5,  99,  14.3,  14.2,  13.4,   0.0,  0.00, 
 08/06/02, 23:00,   9.2,  99,  14.1,  14.2,  13.4,   0.0,  0.00, 
 08/06/03, 00:00,   9.1,  99,  13.9,  14.2,  13.4,   0.0,  0.00, 
 08/06/03, 01:00,   9.1,  99,  13.7,  14.1,  13.4,   0.0,  0.00, 
 08/06/03, 02:00,   9.0,  99,  13.6,  14.1,  13.4,   1.5,  0.00, 
 08/06/03, 03:00,   9.0,  99,  13.4,  13.9,  13.3,   1.0,  0.00, 
 08/06/03, 04:00,   8.7,  99,  13.2,  14.0,  13.3,   0.5,  0.00, 
 08/06/03, 05:00,   8.8,  99,  13.1,  13.9,  13.3,   1.0,  0.00, 
 08/06/03, 06:00,   8.8,  99,  12.9,  13.7,  13.3,   1.0,  0.06, 
 08/06/03, 07:00,   9.0,  99,  12.8,  13.7,  13.4,   0.5,  0.20, 
 08/06/03, 08:00,   9.1,  99,  12.8,  13.7,  13.4,   0.5,  0.18, 
 08/06/03, 09:00,   9.1,  99,  12.7,  13.5,  13.4,   2.0,  0.17, 
 08/06/03, 10:00,   9.8,  99,  12.7,  13.5,  13.4,   1.0,  0.66, 
 08/06/03, 11:00,  10.6,  99,  12.9,  13.4,  13.4,   0.5,  0.84, 
 08/06/03, 12:00,  11.1,  99,  13.1,  13.4,  13.4,   0.0,  1.03, 
 08/06/03, 13:00,  11.6,  99,  13.4,  13.4,  13.4,   0.0,  0.70, 
 08/06/03, 14:00,  13.3,  96,  13.6,  13.4,  13.3,   0.0,  1.27, 
 08/06/03, 15:00,  14.0,  95,  14.0,  13.4,  13.4,   0.0,  1.76, 
 08/06/03, 16:00,  14.2,  96,  14.3,  13.5,  13.2,   0.0,  0.69, 
 08/06/03, 17:00,  13.4,  95,  14.5,  13.5,  13.2,   0.0,  0.49, 
 08/06/03, 18:00,  13.0,  95,  14.6,  13.6,  13.2,   0.0,  0.25, 
 08/06/03, 19:00,  12.3,  96,  14.6,  13.7,  13.3,   0.0,  0.08, 
 08/06/03, 20:00,  11.5,  99,  14.4,  13.7,  13.3,   0.0,  0.00, 
 08/06/03, 21:00,  11.1,  99,  14.3,  13.8,  13.3,   0.0,  0.00, 
 08/06/03, 22:00,  11.1,  97,  14.1,  13.7,  13.2,   0.0,  0.00, 
 08/06/03, 23:00,  10.9,  96,  14.0,  13.8,  13.3,   0.0,  0.00, 
 08/06/04, 00:00,  10.5,  97,  13.8,  13.7,  13.2,   0.0,  0.00, 
 08/06/04, 01:00,  11.0,  96,  13.7,  13.8,  13.2,   0.0,  0.00, 
 08/06/04, 02:00,  10.6,  99,  13.5,  13.7,  13.2,   0.0,  0.00, 
 08/06/04, 03:00,  10.5,  98,  13.4,  13.7,  13.3,   0.0,  0.00, 
 08/06/04, 04:00,  10.3,  99,  13.3,  13.7,  13.3,   0.0,  0.00, 
 08/06/04, 05:00,  10.6,  99,  13.2,  13.7,  13.3,   0.0,  0.00, 
 08/06/04, 06:00,  11.4,  96,  13.1,  13.6,  13.3,   0.0,  0.11, 
 08/06/04, 07:00,  12.2,  95,  13.1,  13.6,  13.3,   0.0,  0.54, 
 08/06/04, 08:00,  12.8,  97,  13.2,  13.5,  13.3,   0.0,  0.94, 
 08/06/04, 09:00,  12.9,  94,  13.4,  13.5,  13.3,   0.0,  1.00, 
 08/06/04, 10:00,  13.3,  96,  13.6,  13.5,  13.3,   0.0,  0.69, 
 08/06/04, 11:00,  11.9,  98,  13.8,  13.5,  13.2,   0.0,  0.30, 
 08/06/04, 12:00,  13.6,  93,  13.9,  13.5,  13.1,   0.0,  1.04, 
 08/06/04, 13:00,  15.2,  86,  14.2,  13.5,  13.1,   0.0,  2.00, 
 08/06/04, 14:00,  14.8,  90,  14.7,  13.6,  13.1,   0.0,  1.64, 
 08/06/04, 15:00,  15.0,  90,  15.1,  13.6,  13.1,   0.0,  0.65, 
 08/06/04, 16:00,  14.2,  93,  15.2,  13.7,  13.2,   0.0,  0.53, 
 08/06/04, 17:00,  13.9,  90,  15.3,  13.7,  13.2,   0.0,  0.60, 
 08/06/04, 18:00,  12.8,  99,  15.3,  13.9,  13.2,   0.0,  0.18, 
 08/06/04, 19:00,  12.4,  99,  15.2,  14.0,  13.2,   0.0,  0.06, 
 08/06/04, 20:00,  12.0,  99,  15.0,  14.1,  13.2,   0.0,  0.00, 
 08/06/04, 21:00,  11.8,  99,  14.8,  14.1,  13.2,   0.0,  0.00, 
 08/06/04, 22:00,  11.5,  99,  14.7,  14.1,  13.2,   0.0,  0.00, 
 08/06/04, 23:00,  11.4,  99,  14.5,  14.1,  13.2,   0.0,  0.00, 
 08/06/05, 00:00,  11.4,  99,  14.3,  14.1,  13.2,   0.0,  0.00, 
 08/06/05, 01:00,  11.3,  99,  14.1,  14.1,  13.2,   0.0,  0.00, 
 08/06/05, 02:00,  11.2,  99,  14.0,  14.1,  13.2,   0.0,  0.00, 
 08/06/05, 03:00,  11.1,  99,  13.9,  13.9,  13.2,   0.0,  0.00, 
 08/06/05, 04:00,  10.7,  99,  13.8,  13.9,  13.2,   0.0,  0.00, 
 08/06/05, 05:00,  10.7,  99,  13.7,  14.0,  13.2,   0.0,  0.00, 
 08/06/05, 06:00,  10.6,  99,  13.6,  13.8,  13.2,   0.0,  0.02, 
 08/06/05, 07:00,  10.6,  99,  13.6,  13.9,  13.2,   0.0,  0.12, 
 08/06/05, 08:00,  10.8,  99,  13.5,  13.8,  13.2,   0.0,  0.25, 
 08/06/05, 09:00,  11.4,  99,  13.6,  13.7,  13.3,   0.0,  0.60, 
 08/06/05, 10:00,  12.4,  99,  13.7,  13.7,  13.2,   0.0,  1.14, 
 08/06/05, 11:00,  13.9,  99,  14.0,  13.7,  13.3,   0.0,  1.84, 
 08/06/05, 12:00,  14.0,  99,  14.7,  13.7,  13.3,   0.0,  1.63, 
 08/06/05, 13:00,  14.0,  99,  15.2,  13.8,  13.3,   0.5,  0.85, 
 08/06/05, 14:00,  14.0,  99,  15.4,  13.9,  13.3,   0.0,  0.60, 
 08/06/05, 15:00,  12.8,  99,  15.5,  14.0,  13.3,   0.0,  0.57, 
 08/06/05, 16:00,  12.2,  99,  15.4,  14.0,  13.2,   0.5,  0.08, 
 08/06/05, 17:00,  12.3,  99,  15.3,  14.2,  13.3,   3.0,  0.15, 
 08/06/05, 18:00,  12.0,  99,  15.1,  14.2,  13.2,   1.5,  0.16, 
 08/06/05, 19:00,  11.9,  99,  15.0,  14.3,  13.3,   1.0,  0.01, 
 08/06/05, 20:00,  11.8,  99,  14.8,  14.3,  13.2,   1.0,  0.00, 
 08/06/05, 21:00,  11.5,  99,  14.6,  14.3,  13.2,   3.5,  0.00, 
 08/06/05, 22:00,  11.7,  99,  14.4,  14.3,  13.3,   2.0,  0.00, 
 08/06/05, 23:00,  11.8,  99,  14.3,  14.3,  13.3,   0.5,  0.00, 
 08/06/06, 00:00,  12.2,  99,  14.1,  14.3,  13.2,   0.5,  0.00, 
 08/06/06, 01:00,  12.2,  99,  14.0,  14.2,  13.4,   0.0,  0.00, 
 08/06/06, 02:00,  11.4,  99,  14.0,  14.2,  13.3,   0.0,  0.00, 
 08/06/06, 03:00,  11.2,  99,  13.9,  14.1,  13.3,   0.5,  0.00, 
 08/06/06, 04:00,  11.0,  99,  13.8,  14.1,  13.3,   0.0,  0.00, 
 08/06/06, 05:00,  10.9,  99,  13.6,  14.1,  13.3,   0.0,  0.00, 
 08/06/06, 06:00,  11.2,  99,  13.5,  14.0,  13.3,   0.0,  0.12, 
 08/06/06, 07:00,  11.3,  99,  13.5,  13.8,  13.3,   0.0,  0.21, 
 08/06/06, 08:00,  12.0,  99,  13.5,  13.9,  13.4,   0.0,  0.30, 
 08/06/06, 09:00,  12.9,  99,  13.6,  13.8,  13.4,   0.0,  1.43, 
 08/06/06, 10:00,  14.2,  94,  13.9,  13.8,  13.4,   0.0,  1.82, 
 08/06/06, 11:00,  14.0,  90,  14.5,  13.8,  13.4,   0.0,  1.57, 
 08/06/06, 12:00,  14.5,  85,  15.0,  13.8,  13.4,   0.0,  1.58, 
 08/06/06, 13:00,  15.2,  84,  15.5,  13.9,  13.4,   0.0,  1.60, 
 08/06/06, 14:00,  16.4,  81,  15.8,  14.0,  13.4,   0.0,  1.30, 
 08/06/06, 15:00,  15.8,  81,  16.1,  14.1,  13.4,   0.0,  1.66, 
 08/06/06, 16:00,  14.4,  89,  16.4,  14.2,  13.4,   0.0,  1.30, 
 08/06/06, 17:00,  13.0,  88,  16.5,  14.4,  13.4,   0.0,  0.44, 
 08/06/06, 18:00,  12.6,  87,  16.3,  14.5,  13.2,   0.0,  0.30, 
 08/06/06, 19:00,  12.0,  92,  16.0,  14.6,  13.2,   0.0,  0.09, 
 08/06/06, 20:00,  11.3,  92,  15.8,  14.6,  13.2,   0.0,  0.00, 
 08/06/06, 21:00,  10.4,  94,  15.5,  14.7,  13.2,   0.0,  0.00, 
 08/06/06, 22:00,  10.2,  85,  15.1,  14.7,  13.2,   0.0,  0.00, 
 08/06/06, 23:00,  11.0,  76,  14.7,  14.7,  13.4,   0.0,  0.00, 
 08/06/07, 00:00,   9.8,  82,  14.5,  14.6,  13.4,   0.0,  0.00, 
 08/06/07, 01:00,   9.1,  88,  14.1,  14.5,  13.5,   0.0,  0.00, 
 08/06/07, 02:00,   9.5,  84,  13.8,  14.5,  13.5,   0.0,  0.00, 
 08/06/07, 03:00,  10.2,  79,  13.6,  14.4,  13.5,   0.0,  0.00, 
 08/06/07, 04:00,   9.6,  82,  13.3,  14.3,  13.5,   0.0,  0.00, 
 08/06/07, 05:00,  10.6,  72,  13.1,  14.2,  13.4,   0.0,  0.00, 
 08/06/07, 06:00,   9.2,  88,  12.8,  14.1,  13.3,   0.0,  0.20, 
 08/06/07, 07:00,  11.9,  83,  12.6,  13.9,  13.2,   0.0,  0.99, 
 08/06/07, 08:00,  13.5,  82,  12.6,  13.8,  13.3,   0.0,  1.74, 
 08/06/07, 09:00,  14.1,  68,  13.2,  13.7,  13.5,   0.0,  2.40, 
 08/06/07, 10:00,  16.0,  68,  13.9,  13.7,  13.5,   0.0,  3.09, 
 08/06/07, 11:00,  18.1,  64,  14.8,  13.7,  13.5,   0.0,  2.94, 
 08/06/07, 12:00,  17.5,  67,  15.9,  13.7,  13.3,   0.0,  2.42, 
 08/06/07, 13:00,  18.3,  62,  16.9,  13.9,  13.3,   0.0,  2.89, 
 08/06/07, 14:00,  16.9,  66,  17.4,  14.1,  13.5,   0.0,  2.01, 
 08/06/07, 15:00,  16.3,  68,  17.6,  14.3,  13.5,   0.0,  1.09, 
 08/06/07, 16:00,  15.7,  70,  17.6,  14.5,  13.5,   0.0,  0.81, 
 08/06/07, 17:00,  15.1,  69,  17.5,  14.8,  13.5,   0.0,  0.67, 
 08/06/07, 18:00,  14.1,  72,  17.2,  14.9,  13.3,   0.0,  0.48, 
 08/06/07, 19:00,  13.0,  78,  17.0,  15.0,  13.5,   0.0,  0.08, 
 08/06/07, 20:00,  11.8,  91,  16.7,  15.1,  13.5,   0.0,  0.00, 
 08/06/07, 21:00,  11.5,  92,  16.4,  15.2,  13.5,   0.0,  0.00, 
 08/06/07, 22:00,  11.6,  92,  16.0,  15.2,  13.5,   0.0,  0.00, 
 08/06/07, 23:00,  11.2,  94,  15.8,  15.2,  13.5,   0.5,  0.00, 
 08/06/08, 00:00,  10.7,  94,  15.5,  15.2,  13.3,   0.0,  0.00, 
 08/06/08, 01:00,  10.8,  95,  15.3,  15.1,  13.3,   0.0,  0.00, 
 08/06/08, 02:00,  10.8,  97,  15.0,  15.1,  13.4,   0.0,  0.00, 
 08/06/08, 03:00,  11.4,  87,  14.8,  15.0,  13.4,   0.0,  0.00, 
 08/06/08, 04:00,  11.0,  91,  14.6,  14.9,  13.4,   0.0,  0.00, 
 08/06/08, 05:00,  10.8,  92,  14.4,  14.9,  13.3,   0.0,  0.00, 
 08/06/08, 06:00,  11.8,  79,  14.3,  14.8,  13.6,   0.0,  0.10, 
 08/06/08, 07:00,  12.7,  81,  14.3,  14.7,  13.7,   0.0,  0.33, 
 08/06/08, 08:00,  13.2,  67,  14.2,  14.5,  13.7,   0.0,  0.45, 
 08/06/08, 09:00,  13.9,  84,  14.2,  14.5,  13.7,   0.0,  1.01, 
 08/06/08, 10:00,  15.8,  80,  14.5,  14.5,  13.7,   0.0,  1.88, 
 08/06/08, 11:00,  16.5,  76,  15.0,  14.4,  13.7,   0.0,  2.45, 
 08/06/08, 12:00,  18.6,  72,  15.8,  14.4,  13.5,   0.0,  3.23, 
 08/06/08, 13:00,  19.5,  53,  17.0,  14.5,  13.5,   0.0,  3.47, 
 08/06/08, 14:00,  20.3,  50,  17.7,  14.6,  13.5,   0.0,  3.19, 
 08/06/08, 15:00,  20.1,  49,  17.8,  14.8,  13.5,   0.0,  2.52, 
 08/06/08, 16:00,  18.1,  69,  17.9,  15.0,  13.5,   0.0,  0.76, 
 08/06/08, 17:00,  17.3,  78,  17.8,  15.2,  13.5,   0.0,  0.43, 
 08/06/08, 18:00,  16.2,  85,  17.7,  15.4,  13.5,   0.0,  0.43, 
 08/06/08, 19:00,  15.1,  85,  17.5,  15.5,  13.5,   0.0,  0.07, 
 08/06/08, 20:00,  14.6,  86,  17.3,  15.6,  13.6,   0.0,  0.00, 
 08/06/08, 21:00,  14.4,  84,  17.0,  15.6,  13.5,   0.0,  0.00, 
 08/06/08, 22:00,  14.1,  86,  16.9,  15.7,  13.5,   0.0,  0.00, 
 08/06/08, 23:00,  12.9,  92,  16.5,  15.6,  13.5,   0.0,  0.00, 
 08/06/09, 00:00,  13.3,  90,  16.3,  15.7,  13.7,   0.0,  0.00, 
 08/06/09, 01:00,  12.1,  93,  16.0,  15.6,  13.6,   0.0,  0.00, 
 08/06/09, 02:00,  11.5,  88,  15.8,  15.6,  13.6,   0.0,  0.00, 
 08/06/09, 03:00,  11.3,  85,  15.5,  15.5,  13.6,   0.0,  0.00, 
 08/06/09, 04:00,  12.1,  75,  15.3,  15.5,  13.6,   0.0,  0.00, 
 08/06/09, 05:00,  11.2,  82,  15.2,  15.4,  13.6,   0.0,  0.00, 
 08/06/09, 06:00,  12.3,  79,  14.9,  15.3,  13.6,   0.0,  0.09, 
 08/06/09, 07:00,  13.5,  81,  14.8,  15.2,  13.7,   0.0,  0.34, 
 08/06/09, 08:00,  14.2,  79,  14.8,  15.1,  13.9,   0.0,  0.84, 
 08/06/09, 09:00,  16.6,  82,  14.9,  15.1,  13.9,   0.0,  1.66, 
 08/06/09, 10:00,  15.6,  80,  15.3,  15.0,  13.7,   0.0,  1.73, 
 08/06/09, 11:00,  17.0,  80,  15.8,  15.0,  13.9,   0.0,  1.91, 
 08/06/09, 12:00,  19.5,  66,  16.6,  15.0,  14.0,   0.0,  2.78, 
 08/06/09, 13:00,  21.0,  55,  17.6,  15.1,  13.8,   0.0,  3.60, 
 08/06/09, 14:00,  16.6,  77,  18.1,  15.2,  14.0,   0.0,  0.78, 
 08/06/09, 15:00,  13.6,  99,  18.0,  15.4,  14.0,   0.5,  0.17, 
 08/06/09, 16:00,  14.4,  99,  17.8,  15.5,  14.0,   0.0,  0.61, 
 08/06/09, 17:00,  14.6,  85,  17.7,  15.7,  13.8,   0.0,  0.67, 
 08/06/09, 18:00,  14.2,  99,  17.5,  15.7,  14.0,   0.0,  0.62, 
 08/06/09, 19:00,  13.5,  97,  17.3,  15.7,  14.0,   0.0,  0.37, 
 08/06/09, 20:00,  12.2,  99,  17.1,  15.9,  14.0,   0.0,  0.01, 
 08/06/09, 21:00,  11.7,  99,  16.9,  15.9,  14.0,   0.0,  0.00, 
 08/06/09, 22:00,  11.7,  96,  16.5,  15.8,  13.7,   0.0,  0.00, 
 08/06/09, 23:00,  12.1,  93,  16.2,  15.9,  14.0,   0.0,  0.00, 
 08/06/10, 00:00,  12.1,  90,  15.7,  15.7,  14.1,   0.0,  0.00, 
 08/06/10, 01:00,  10.1,  99,  15.4,  15.7,  14.1,   0.0,  0.00, 
 08/06/10, 02:00,  12.8,  75,  15.1,  15.7,  14.1,   0.0,  0.00, 
 08/06/10, 03:00,   9.2,  98,  14.8,  15.6,  14.1,   0.0,  0.00, 
 08/06/10, 04:00,   8.6,  99,  14.5,  15.5,  14.1,   0.0,  0.00, 
 08/06/10, 05:00,   8.2,  96,  14.3,  15.3,  14.1,   0.0,  0.00, 
 08/06/10, 06:00,   9.6,  94,  14.0,  15.2,  13.9,   0.0,  0.21, 
 08/06/10, 07:00,  14.7,  63,  13.8,  15.0,  13.9,   0.0,  1.05, 
 08/06/10, 08:00,  15.2,  85,  13.7,  15.0,  14.2,   0.0,  1.87, 
 08/06/10, 09:00,  15.9,  80,  14.3,  14.9,  14.2,   0.0,  2.10, 
 08/06/10, 10:00,  19.0,  59,  14.8,  14.8,  14.2,   0.0,  2.43, 
 08/06/10, 11:00,  18.4,  67,  15.6,  14.7,  14.2,   0.0,  2.88, 
 08/06/10, 12:00,  19.8,  63,  16.6,  14.8,  14.2,   0.0,  2.84, 
 08/06/10, 13:00,  20.7,  45,  17.7,  14.9,  14.2,   0.0,  3.12, 
 08/06/10, 14:00,  21.8,  49,  18.3,  15.1,  14.1,   0.0,  3.33, 
 08/06/10, 15:00,  21.3,  54,  18.3,  15.3,  14.1,   0.0,  2.68, 
 08/06/10, 16:00,  19.7,  64,  18.5,  15.5,  14.1,   0.0,  2.23, 
 08/06/10, 17:00,  19.1,  58,  18.7,  15.7,  14.1,   0.0,  1.71, 
 08/06/10, 18:00,  17.2,  65,  18.8,  15.7,  14.1,   0.0,  1.03, 
 08/06/10, 19:00,  15.7,  68,  18.5,  16.0,  14.1,   0.0,  0.34, 
 08/06/10, 20:00,  13.5,  80,  18.1,  16.1,  14.1,   0.0,  0.01, 
 08/06/10, 21:00,  13.9,  85,  17.7,  16.2,  14.1,   0.0,  0.00, 
 08/06/10, 22:00,  13.9,  88,  17.2,  16.2,  14.2,   0.0,  0.00, 
 08/06/10, 23:00,  12.5,  96,  16.9,  16.2,  14.2,   0.0,  0.00, 
 08/06/11, 00:00,  12.2,  93,  16.6,  16.2,  14.2,   0.0,  0.00, 
 08/06/11, 01:00,  12.5,  87,  16.3,  16.2,  14.2,   0.0,  0.00, 
 08/06/11, 02:00,  12.9,  81,  16.1,  16.1,  14.2,   0.0,  0.00, 
 08/06/11, 03:00,  12.8,  84,  15.7,  16.0,  14.3,   0.0,  0.00, 
 08/06/11, 04:00,  12.8,  87,  15.6,  15.9,  14.3,   0.0,  0.00, 
 08/06/11, 05:00,  12.9,  89,  15.3,  15.7,  14.3,   0.0,  0.00, 
 08/06/11, 06:00,  12.8,  93,  15.3,  15.7,  14.3,   0.0,  0.12, 
 08/06/11, 07:00,  14.5,  89,  15.1,  15.6,  14.3,   0.0,  0.37, 
 08/06/11, 08:00,  15.8,  85,  15.1,  15.5,  14.3,   0.0,  0.96, 
 08/06/11, 09:00,  16.1,  85,  15.3,  15.5,  14.4,   0.0,  1.47, 
 08/06/11, 10:00,  17.5,  74,  15.8,  15.4,  14.4,   0.0,  2.38, 
 08/06/11, 11:00,  19.2,  73,  16.6,  15.4,  14.4,   0.0,  2.95, 
 08/06/11, 12:00,  19.9,  64,  17.4,  15.4,  14.4,   0.0,  3.08, 
 08/06/11, 13:00,  18.8,  68,  18.4,  15.5,  14.4,   0.0,  2.64, 
 08/06/11, 14:00,  18.9,  65,  19.0,  15.7,  14.4,   0.0,  2.36, 
 08/06/11, 15:00,  19.3,  56,  19.1,  15.9,  14.2,   0.0,  2.03, 
 08/06/11, 16:00,  17.9,  57,  19.2,  16.1,  14.4,   0.0,  1.61, 
 08/06/11, 17:00,  17.7,  72,  19.2,  16.3,  14.4,   0.0,  1.27, 
 08/06/11, 18:00,  16.0,  88,  19.1,  16.4,  14.4,   0.0,  0.47, 
 08/06/11, 19:00,  14.8,  94,  18.8,  16.6,  14.4,   0.0,  0.13, 
 08/06/11, 20:00,  13.9,  97,  18.5,  16.7,  14.4,   0.0,  0.00, 
 08/06/11, 21:00,  13.7,  99,  18.2,  16.7,  14.4,   0.0,  0.00, 
 08/06/11, 22:00,  13.4,  99,  17.8,  16.7,  14.4,   0.0,  0.00, 
 08/06/11, 23:00,  13.2,  99,  17.5,  16.7,  14.5,   0.0,  0.00, 
 08/06/12, 00:00,  12.9,  99,  17.4,  16.7,  14.5,   0.0,  0.00, 
 08/06/12, 01:00,  12.8,  99,  17.1,  16.6,  14.5,   0.0,  0.00, 
 08/06/12, 02:00,  12.6,  99,  16.9,  16.6,  14.5,   0.0,  0.00, 
 08/06/12, 03:00,  12.5,  99,  16.8,  16.5,  14.5,   0.0,  0.00, 
 08/06/12, 04:00,  12.4,  99,  16.6,  16.5,  14.6,   0.0,  0.00, 
 08/06/12, 05:00,  12.2,  99,  16.3,  16.4,  14.6,   0.0,  0.00, 
 08/06/12, 06:00,  12.2,  99,  16.3,  16.3,  14.6,   0.0,  0.00, 
 08/06/12, 07:00,  12.2,  99,  16.0,  16.2,  14.6,   0.0,  0.06, 
 08/06/12, 08:00,  12.3,  99,  15.9,  16.2,  14.6,   0.0,  0.18, 
 08/06/12, 09:00,  13.1,  99,  15.9,  16.1,  14.6,   0.0,  0.83, 
 08/06/12, 10:00,  13.1,  99,  16.0,  16.0,  14.7,   0.0,  1.00, 
 08/06/12, 11:00,  12.5,  99,  16.2,  15.9,  14.7,   0.0,  0.30, 
 08/06/12, 12:00,  13.1,  99,  16.4,  15.9,  14.7,   0.0,  0.75, 
 08/06/12, 13:00,  15.8,  86,  16.5,  15.8,  14.6,   0.0,  1.11, 
 08/06/12, 14:00,  16.9,  81,  16.6,  15.9,  14.7,   0.0,  1.79, 
 08/06/12, 15:00,  18.7,  70,  16.9,  15.8,  14.4,   0.0,  3.23, 
 08/06/12, 16:00,  16.8,  76,  17.3,  15.9,  14.7,   0.0,  2.64, 
 08/06/12, 17:00,  16.4,  78,  17.8,  16.0,  14.5,   0.0,  2.05, 
 08/06/12, 18:00,  14.7,  86,  18.0,  16.1,  14.7,   0.0,  1.12, 
 08/06/12, 19:00,  12.1,  93,  17.8,  16.1,  14.7,   0.0,  0.39, 
 08/06/12, 20:00,  10.8,  96,  17.6,  16.2,  14.7,   0.0,  0.01, 
 08/06/12, 21:00,  10.4,  98,  17.1,  16.3,  14.7,   0.0,  0.00, 
 08/06/12, 22:00,  10.4,  99,  16.7,  16.3,  14.7,   0.0,  0.00, 
 08/06/12, 23:00,   8.9,  99,  16.3,  16.3,  14.7,   0.0,  0.00, 
 08/06/13, 00:00,   9.0,  99,  16.0,  16.2,  14.7,   0.0,  0.00, 
 08/06/13, 01:00,  10.4,  83,  15.6,  16.2,  14.7,   0.0,  0.00, 
 08/06/13, 02:00,   9.9,  78,  15.3,  16.1,  14.5,   0.0,  0.00, 
 08/06/13, 03:00,  10.8,  54,  15.0,  15.8,  14.5,   0.0,  0.00, 
 08/06/13, 04:00,  10.3,  53,  14.6,  15.7,  14.5,   0.0,  0.00, 
 08/06/13, 05:00,  10.0,  57,  14.5,  15.7,  14.4,   0.0,  0.00, 
 08/06/13, 06:00,  10.3,  63,  14.1,  15.6,  14.6,   0.0,  0.19, 
 08/06/13, 07:00,  13.7,  58,  13.9,  15.4,  14.6,   0.0,  1.05, 
 08/06/13, 08:00,  14.7,  54,  14.0,  15.3,  14.6,   0.0,  1.79, 
 08/06/13, 09:00,  15.4,  47,  14.4,  15.2,  14.4,   0.0,  2.25, 
 08/06/13, 10:00,  15.5,  46,  14.8,  15.1,  14.4,   0.0,  1.59, 
 08/06/13, 11:00,  15.5,  48,  15.3,  15.1,  14.5,   0.0,  1.17, 
 08/06/13, 12:00,  17.0,  47,  15.5,  15.1,  14.4,   0.0,  1.98, 
 08/06/13, 13:00,  17.9,  46,  16.2,  15.1,  14.7,   0.0,  2.26, 
 08/06/13, 14:00,  16.4,  51,  16.6,  15.2,  14.7,   0.0,  1.05, 
 08/06/13, 15:00,  16.6,  53,  16.7,  15.2,  14.7,   0.0,  1.49, 
 08/06/13, 16:00,  18.0,  53,  16.9,  15.4,  14.7,   0.0,  1.64, 
 08/06/13, 17:00,  16.5,  55,  17.1,  15.5,  14.6,   0.0,  1.25, 
 08/06/13, 18:00,  15.7,  58,  17.2,  15.6,  14.6,   0.0,  0.26, 
 08/06/13, 19:00,  14.6,  66,  17.0,  15.6,  14.6,   0.0,  0.06, 
 08/06/13, 20:00,  13.3,  66,  16.8,  15.7,  14.6,   0.0,  0.00, 
 08/06/13, 21:00,  13.2,  66,  16.5,  15.8,  14.6,   0.0,  0.00, 
 08/06/13, 22:00,  12.5,  70,  16.2,  15.8,  14.6,   0.0,  0.00, 
 08/06/13, 23:00,  11.6,  69,  15.8,  15.7,  14.4,   0.0,  0.00, 
 08/06/14, 00:00,  12.0,  69,  15.5,  15.6,  14.4,   0.0,  0.00, 
 08/06/14, 01:00,  13.2,  66,  15.2,  15.6,  14.4,   0.0,  0.00, 
 08/06/14, 02:00,  13.5,  67,  15.0,  15.6,  14.4,   0.0,  0.00, 
 08/06/14, 03:00,  13.6,  66,  14.8,  15.5,  14.4,   0.0,  0.00, 
 08/06/14, 04:00,  12.9,  71,  14.6,  15.5,  14.4,   0.0,  0.00, 
 08/06/14, 05:00,  12.2,  75,  14.5,  15.4,  14.3,   0.0,  0.00, 
 08/06/14, 06:00,  12.7,  71,  14.2,  15.3,  14.6,   0.0,  0.20, 
 08/06/14, 07:00,  12.7,  71,  14.1,  15.2,  14.4,   0.0,  0.91, 
 08/06/14, 08:00,  13.9,  63,  14.1,  15.1,  14.6,   0.0,  1.70, 
 08/06/14, 09:00,  16.1,  55,  14.5,  15.0,  14.6,   0.0,  2.35, 
 08/06/14, 10:00,  17.7,  55,  15.0,  14.9,  14.6,   0.0,  2.93, 
 08/06/14, 11:00,  18.0,  54,  15.9,  14.9,  14.6,   0.0,  3.23, 
 08/06/14, 12:00,  19.2,  51,  17.2,  15.0,  14.6,   0.0,  3.64, 
 08/06/14, 13:00,  18.4,  48,  18.6,  15.1,  14.6,   0.0,  3.69, 
 08/06/14, 14:00,  17.9,  40,  19.1,  15.3,  14.6,   0.0,  3.46, 
 08/06/14, 15:00,  17.2,  42,  18.9,  15.6,  14.6,   0.0,  2.91, 
 08/06/14, 16:00,  16.8,  46,  18.7,  15.7,  14.6,   0.0,  2.50, 
 08/06/14, 17:00,  16.2,  57,  18.9,  16.0,  14.6,   0.0,  1.86, 
 08/06/14, 18:00,  13.7,  70,  18.8,  16.2,  14.6,   0.0,  1.10, 
 08/06/14, 19:00,  11.4,  83,  18.5,  16.3,  14.6,   0.0,  0.40, 
 08/06/14, 20:00,   9.3,  93,  17.9,  16.4,  14.6,   0.0,  0.01, 
 08/06/14, 21:00,   8.3,  97,  17.4,  16.5,  14.6,   0.0,  0.00, 
 08/06/14, 22:00,   7.8,  99,  16.9,  16.5,  14.6,   0.0,  0.00, 
 08/06/14, 23:00,   7.5,  99,  16.4,  16.4,  14.6,   0.0,  0.00, 
 08/06/15, 00:00,   7.6,  99,  16.1,  16.4,  14.6,   0.0,  0.00, 
 08/06/15, 01:00,   5.9,  98,  15.7,  16.3,  14.4,   0.0,  0.00, 
 08/06/15, 02:00,   5.1,  99,  15.4,  16.2,  14.5,   0.0,  0.00, 
 08/06/15, 03:00,   5.6,  99,  15.1,  15.9,  14.5,   0.0,  0.00, 
 08/06/15, 04:00,   4.3,  99,  14.8,  15.8,  14.4,   0.0,  0.00, 
 08/06/15, 05:00,   4.4,  98,  14.5,  15.7,  14.5,   0.0,  0.00, 
 08/06/15, 06:00,   7.9,  89,  14.2,  15.6,  14.5,   0.0,  0.28, 
 08/06/15, 07:00,  10.7,  84,  14.0,  15.4,  14.4,   0.0,  0.76, 
 08/06/15, 08:00,  12.5,  86,  14.0,  15.4,  14.7,   0.0,  1.69, 
 08/06/15, 09:00,  13.8,  82,  14.4,  15.3,  14.6,   0.0,  2.47, 
 08/06/15, 10:00,  15.9,  70,  15.1,  15.2,  14.6,   0.0,  3.16, 
 08/06/15, 11:00,  16.9,  53,  16.1,  15.1,  14.7,   0.0,  3.39, 
 08/06/15, 12:00,  17.8,  48,  17.5,  15.2,  14.7,   0.0,  3.66, 
 08/06/15, 13:00,  20.0,  48,  18.7,  15.3,  14.7,   0.0,  3.52, 
 08/06/15, 14:00,  20.3,  49,  19.4,  15.5,  14.6,   0.0,  3.18, 
 08/06/15, 15:00,  19.1,  54,  19.4,  15.8,  14.7,   0.0,  2.73, 
 08/06/15, 16:00,  18.5,  56,  19.4,  16.1,  14.7,   0.0,  2.34, 
 08/06/15, 17:00,  16.5,  64,  19.5,  16.3,  14.7,   0.0,  1.19, 
 08/06/15, 18:00,  14.9,  72,  19.2,  16.5,  14.7,   0.0,  0.53, 
 08/06/15, 19:00,  13.1,  81,  18.9,  16.6,  14.7,   0.0,  0.16, 
 08/06/15, 20:00,  11.8,  89,  18.5,  16.7,  14.7,   0.0,  0.00, 
 08/06/15, 21:00,  10.8,  95,  18.0,  16.8,  14.7,   0.0,  0.00, 
 08/06/15, 22:00,  10.1,  97,  17.5,  16.8,  14.7,   0.0,  0.00, 
 08/06/15, 23:00,  10.0,  98,  17.1,  16.8,  14.6,   0.0,  0.00, 
 08/06/16, 00:00,  10.4,  99,  16.7,  16.7,  14.8,   0.0,  0.00, 
 08/06/16, 01:00,  11.0,  98,  16.5,  16.6,  14.8,   0.0,  0.00, 